Omaha, NE

12:42 PM CST on January 17, 2017 (GMT -0600)
Eppley Airfield

Weather History for KOMA - January, 2013

Change the Weather History Date:

Friday, January 4, 2013

  Actual Average Record
Temperature  
Mean Temperature 24 °F 23 °F  
Max Temperature 36 °F 33 °F 59 °F (1916)
Min Temperature 12 °F 14 °F -23 °F (1884)
Degree Days  
Heating Degree Days 41 42  
Month to date heating degree days 179 168  
Since 1 July heating degree days 2456 2647  
Cooling Degree Days 0 0  
Month to date cooling degree days 0 0  
Year to date cooling degree days 0 0  
Moisture  
Dew Point 14 °F    
Average Humidity 72    
Maximum Humidity 92    
Minimum Humidity 51    
Precipitation  
Precipitation 0.00 in 0.02 in 0.50 in (1910)
Month to date precipitation T 0.09  
Year to date precipitation T 0.09  
Snow  
Snow 0.00 in 0.10 in - ()
Month to date snowfall T 0.7  
Since 1 July snowfall 7.4 9.7  
Snow Depth 2.00 in    
Sea Level Pressure  
Sea Level Pressure 30.27 in    
Wind  
Wind Speed 8 mph (South)    
Max Wind Speed 13 mph    
Max Gust Speed 15 mph    
Visibility 10 miles    
Events      
T = Trace of Precipitation, MM = Missing Value Source: NWS Daily Summary

Daily Weather History Graph

Daily Weather History Graph

Search for Another Location

Airport or City:

Trip Planner

Search our weather history database for the weather conditions in past years. The results will help you decide how hot, cold, wet, or windy it might be!

Date:

Astronomy

Jan. 04, 2013 Rise Set
Actual Time 7:49 AM CST 5:08 PM CST
Civil Twilight 7:18 AM CST 5:39 PM CST
Nautical Twilight 6:43 AM CST 6:13 PM CST
Astronomical Twilight 6:10 AM CST 6:47 PM CST
Moon No Moon Rise 11:27 AM CST (1/4)
Length of Visible Light 10h 20m
Length of Day
9h 18m
Waning Gibbous, 55% of the Moon is Illuminated
Jan 4
Waning Gibbous
Jan 4
Last Quarter
Jan 11
New
Jan 18
First Quarter
Jan 26
Full

Hourly Weather History & Observations

Time (CST) Temp. Windchill Dew Point Humidity Pressure Visibility Wind Dir Wind Speed Gust Speed Precip Events Conditions
12:52 AM 15.1 °F 2.5 °F 10.0 °F 80% 30.35 in 10.0 mi SSE 10.4 mph - N/A   Clear
1:52 AM 14.0 °F 5.1 °F 10.0 °F 84% 30.34 in 10.0 mi SSE 5.8 mph - N/A   Clear
2:52 AM 14.0 °F 2.9 °F 10.0 °F 84% 30.34 in 9.0 mi SSE 8.1 mph - N/A   Clear
3:52 AM 14.0 °F 2.0 °F 10.0 °F 84% 30.33 in 9.0 mi SSE 9.2 mph - N/A   Clear
4:52 AM 12.9 °F 2.6 °F 10.0 °F 88% 30.32 in 9.0 mi SSE 6.9 mph - N/A   Clear
5:52 AM 12.9 °F 1.6 °F 10.0 °F 88% 30.30 in 8.0 mi SSE 8.1 mph - N/A   Clear
6:52 AM 12.9 °F 1.6 °F 9.0 °F 84% 30.30 in 9.0 mi SSE 8.1 mph - N/A   Clear
7:52 AM 14.0 °F 6.5 °F 10.0 °F 84% 30.30 in 8.0 mi SSE 4.6 mph - N/A   Clear
8:52 AM 19.9 °F 9.3 °F 14.0 °F 78% 30.29 in 10.0 mi SSW 9.2 mph - N/A   Clear
9:52 AM 21.9 °F 13.4 °F 14.0 °F 72% 30.31 in 10.0 mi SSW 6.9 mph - N/A   Clear
10:52 AM 24.1 °F 16.0 °F 15.1 °F 69% 30.32 in 10.0 mi South 6.9 mph - N/A   Clear
11:52 AM 27.0 °F 17.3 °F 15.1 °F 61% 30.29 in 10.0 mi South 10.4 mph - N/A   Clear
12:52 PM 30.0 °F 23.2 °F 16.0 °F 56% 30.25 in 10.0 mi SSW 6.9 mph - N/A   Clear
1:52 PM 32.0 °F 25.6 °F 17.1 °F 54% 30.23 in 10.0 mi SSW 6.9 mph - N/A   Clear
2:52 PM 34.0 °F 26.6 °F 17.1 °F 50% 30.23 in 10.0 mi SSW 9.2 mph - N/A   Clear
3:52 PM 35.1 °F 31.0 °F 19.0 °F 52% 30.22 in 10.0 mi South 4.6 mph - N/A   Clear
4:52 PM 35.1 °F 28.6 °F 19.0 °F 52% 30.23 in 10.0 mi South 8.1 mph - N/A   Clear
5:52 PM 30.0 °F 21.1 °F 21.0 °F 69% 30.23 in 10.0 mi SSE 10.4 mph - N/A   Clear
6:52 PM 28.9 °F 19.8 °F 19.0 °F 67% 30.24 in 10.0 mi South 10.4 mph - N/A   Clear
7:52 PM 25.0 °F 15.5 °F 17.1 °F 72% 30.24 in 10.0 mi South 9.2 mph - N/A   Clear
8:52 PM 24.1 °F 16.0 °F 16.0 °F 71% 30.23 in 10.0 mi South 6.9 mph - N/A   Clear
9:52 PM 24.1 °F 17.0 °F 16.0 °F 71% 30.21 in 10.0 mi South 5.8 mph - N/A   Clear
10:52 PM 19.9 °F 10.1 °F 14.0 °F 78% 30.21 in 10.0 mi SSE 8.1 mph - N/A   Clear
11:52 PM 21.0 °F 9.9 °F 15.1 °F 78% 30.19 in 10.0 mi SSE 10.4 mph - N/A   Scattered Clouds